Flag for U.S.A. Weather past 2 weeks in Tuba City, Arizona, U.S.A.

Now
28 °F

Clear.


Feels Like: 28 °F
Forecast: 22 / 44 °F
Wind: No wind

Location: Grand Canyon National Park Airport

Current Time: Dec 18, 2014 at 7:28:54 PM

Latest Report: Dec 18, 2014 at 6:54 PM


Visibility: 10 mi

Pressure: 30.19 "Hg

Humidity: 93%

Dew point: 26 °F

Location of Tuba CityLocation

Historic Weather in Tuba City — Graph

°F

Tuba City temperature yesterday

Maximum temperature yesterday: 34 °F (at 12:54 AM)
Minimum temperature yesterday: 29 °F (at 7:54 AM)
Average temperature yesterday: 32 °F

Past Weeks' High & Low Weather Summary

 TemperatureHumidityPressure
High55 °F (Dec 7, 2:54 PM)100% (Dec 3, 6:54 PM)30.43 "Hg (Dec 3, 6:54 PM)
Low16 °F (Dec 15, 6:54 AM)29% (Dec 15, 11:54 AM)29.88 "Hg (Dec 12, 9:54 PM)
Average37 °F80%30.12 "Hg
* Reported Dec 3 5:54 PM — Dec 18 5:54 PM, Tuba City, Weather by CustomWeather, © 2014

Note: Actual official high and low records may vary slightly from our data, if they occured in-between our weather recording intervals... More about our weather records

Advertising

Tuba City weather history for previous 24 hours

 ConditionsComfort  
Time TempWeatherWind HumidityBarometerVisibility
5:54 PM
Dec 18
29 °FClear.5 mph93%30.17 "Hg10 mi
4:54 PM34 °FScattered clouds.No wind85%30.13 "Hg10 mi
3:54 PM37 °FSunny.5 mph70%30.10 "Hg10 mi
2:54 PM38 °FBroken clouds.7 mph70%30.08 "Hg10 mi
1:54 PM35 °FBroken clouds.No wind75%30.09 "Hg10 mi
12:54 PM34 °FPartly sunny.No wind85%30.11 "Hg10 mi
11:54 AM33 °FMostly cloudy.3 mph88%30.14 "Hg10 mi
10:54 AM33 °FLow clouds.No wind92%30.16 "Hg10 mi
9:54 AM32 °FLow clouds.No wind92%30.15 "Hg10 mi
8:54 AM30 °FOvercast.No wind96%30.14 "Hg10 mi
7:54 AM29 °FLow clouds.No wind96%30.11 "Hg10 mi
6:54 AM30 °FLow clouds.3 mph96%30.10 "Hg8 mi
5:54 AM30 °FLow clouds.No wind96%30.09 "Hg10 mi
4:54 AM30 °FLow clouds.3 mph100%30.08 "Hg10 mi
3:54 AM30 °FLow clouds.No wind100%30.08 "Hg10 mi
3:04 AM31 °FLight snow. Ice fog.No wind96%30.10 "Hg3 mi
2:54 AM31 °FLight snow. Ice fog.No wind96%30.09 "Hg1 mi
2:01 AM30 °FLight snow. Ice fog.No wind96%30.10 "Hg1 mi
12:54 AM31 °FLow clouds.5 mph96%30.09 "Hg10 mi
11:54 PM
Dec 17
31 °FIce fog.3 mph100%30.10 "Hg4 mi
10:54 PM31 °FLow clouds.3 mph100%30.10 "Hg10 mi
9:54 PM31 °FIce fog.3 mph100%30.10 "Hg6 mi
8:54 PM32 °FLight snow. Ice fog.No wind100%30.09 "Hg2 mi
8:00 PM32 °FLight snow. Ice fog.7 mph100%30.08 "Hg2 mi
Weather by CustomWeather, © 2014

See weather overviewHow to use our weather pages